STARLINK-2543 (48278 NORAD) Tracking and Keplerian Element Data

This shows tracking and keplerian element data for the satellite.

Feedback or suggestion? Click here.




ElementValue
Catalog48278
NameSTARLINK-2543
Epoch Orbit197
Epoch Day173.83334491
Epoch Year2021
RAAN257.2797
Inclination53.0517
Eccentricity0.0001863
Argument of Perigee33.2119
Mean Anonmoly336.4051
Mean Motion15.72660234
Decay Rate0.0090837
L11 48278U 21036C 21173.83334491 .00908370 00000-0 60377-2 0 9992
L22 48278 53.0517 257.2797 0001863 33.2119 336.4051 15.72660234 1973

Live tracking and technical data element details for STARLINK-2543 (NORAD 48278). STARLINK-2543 can be tracked NOW for your location showing map with azimuth and elevation plus other details from your city location.

Track the satellite on the map from your city or location and see movement details for azimuth, elevation, latitude, longitude, range, height, and movement on the map or in text.







IsCatalogInMostPopularTable: catalog: 48278, numindb: 18
Update: records affected: 1



GetName: 48278 STARLINK-2543

Hit Count: updated at: Thu, 24 Jun 2021 02:01:55 GMT